Location: Palomar Mountain Lodge
(33.3110°N, 116.8495°W)
Time: 09:30:24
(UTC-07:00)

Cosmos 1470 - Pass Details

Date: 14 June 2018
Orbit: 522 x 544 km, 82.5° (Epoch: 16 October)

Event Time Altitude Azimuth Distance (km) Brightness Sun altitude
Rises 20:39:07 0° 16° (NNE) 2,653 6.6 -8.1°
Reaches altitude 10° 20:42:07 10° 42° (NE) 1,762 5.3 -8.6°
Enters shadow 20:46:08 11° 106° (ESE) 1,705 4.7 -9.3°
Exits shadow 21:19:19 -64° 172° (S) 12,090 9.6 -14.7°
Maximum altitude 22:20:19 27° 269° (W) 1,032 4.5 -23.4°
